Regional Weather Roundup
Issued by NWS Jackson, KY

Home | Current Version | Previous Version | Text Only | Print | Product List | Glossary Off
Versions: 1 2 3 4 5 6 7 8 9 10 11 12 13 14 15 16 17 18 19 20 21 22 23 24 25 26 27 28 29 30 31 32 33 34 35 36 37 38 39 40 41 42 43 44 45 46 47 48 49 50

000
ASUS43 KJKL 162110
RWRJKL

EAST KENTUCKY HOURLY WEATHER ROUNDUP
NATIONAL WEATHER SERVICE JACKSON KY
500 PM EDT WED APR 16 2014

NOTE: "FAIR" INDICATES FEW OR NO CLOUDS BELOW 12,000 FEET WITH
NO SIGNIFICANT WEATHER AND/OR OBSTRUCTIONS TO VISIBILITY.

* THESE REPORTS ARE NOT UNDER NWS QUALITY CONTROL AND MAY NOT
  REPORT WEATHER SUCH AS PRECIPITATION AND FOG.

KYZ079-080-083-085-087-088-110-112-115-119-120-162200
...EASTERN KENTUCKY...

CITY           SKY/WX    TMP DP  RH WIND       PRES   REMARKS
JACKSON        SUNNY     54  19  25 VRB3      30.27F
LONDON         SUNNY     56  21  25 E8        30.24F
SOMERSET*      SUNNY     55  19  24 NE3       30.25F
MONTICELLO*    SUNNY     58  24  27 E6        30.24F
WILLIAMSBURG*  SUNNY     57  23  26 E3        30.23F
MIDDLESBORO*   SUNNY     59  20  22 CALM      30.24F
HARLAN APT*    CLEAR     57  18  21 E6        30.23F
BLACK MTN*       N/A     46  23  39 E2          N/A
PIKEVILLE APT* SUNNY     52  18  25 E3        30.28F
BIG SANDY*     CLEAR     54  20  27 E9        30.29F
MOREHEAD APT*  CLEAR     52  16  24 MISG      30.31F
$$

KYZ035-036-041-042-044-050-067-078-099-162200
...CENTRAL KENTUCKY...

CITY           SKY/WX    TMP DP  RH WIND       PRES   REMARKS
MT STERLING*   SUNNY     52  23  32 SE7       30.30F
FLEMING/MASON* SUNNY     50  21  32 E8        30.31F
DANVILLE*      SUNNY     52  25  35 E10       30.26F
LEXINGTON      SUNNY     53  21  28 SE9       30.27F
FRANKFORT      SUNNY     51  23  33 E9        30.27F
$$

KYZ091>093-OHZ055-061-077-WVZ005-015-034-035-042-162200
...SOUTHERN OHIO/WEST VIRGINIA...

CITY           SKY/WX    TMP DP  RH WIND       PRES   REMARKS
COVINGTON      MOSUNNY   50  20  30 E9        30.30F
COLUMBUS       MOSUNNY   48  22  35 SE12G17   30.35F
DAYTON         PTSUNNY   48  24  39 SE9       30.32F
WILMINGTON     SUNNY     47  18  31 E8        30.31F
HUNTINGTON     SUNNY     50  19  29 CALM      30.32F
CHARLESTON     MOSUNNY   52  19  27 VRB6      30.32F
PINEVILLE*     SUNNY     57  24  27 MISG      30.32F
BECKLEY        SUNNY     49  19  30 SE10      30.29F
BLUEFIELD      SUNNY     51  16  24 VRB6      30.28S
$$

VAZ002-007-008-TNZ017-027-036-066-071-162200
...SOUTHWEST VIRGINIA/EAST TENNESSEE...

CITY           SKY/WX    TMP DP  RH WIND       PRES   REMARKS
WISE*          SUNNY     54  18  24 N6        30.26F
ABINGDON*      SUNNY     59  19  21 E9G16     30.24F
BRISTOL        MOSUNNY   60  21  22 CALM      30.23F
KNOXVILLE      MOSUNNY   58  28  32 N8        30.22F
OAK RIDGE      SUNNY     59  21  23 E3        30.23F
CROSSVILLE     SUNNY     56  20  24 SE7G16    30.21F
NASHVILLE      PTSUNNY   59  25  27 SE3       30.20F
$$

...KEY TO REMARKS...
VSB - VISIBILITY IN MILES
WCI - WIND CHILL INDEX
HX  - HEAT INDEX

$$



USA.gov is the U.S. government's official web portal to all federal, state and local government web resources and services.